Regional Weather Roundup
Issued by NWS

Home | Current Version | Previous Version | Text Only | Print | Product List | Glossary On
Versions: 1 2 3 4 5 6 7 8 9 10 11 12 13 14 15 16 17 18 19 20 21 22 23 24 25 26 27 28 29 30 31 32 33 34 35 36 37 38 39 40 41 42 43 44 45 46 47 48 49 50
000
ASUS45 KABQ 241110
RWRNM
NEW MEXICO REGIONAL WEATHER ROUNDUP
NATIONAL WEATHER SERVICE ALBUQUERQUE NM
400 AM MST FRI FEB 24 2017

NOTE: "FAIR" MEANS FEW OR NO CLOUDS BELOW 12,000 FEET AGL WITH NO
       SIGNIFICANT WEATHER OR OBSTRUCTIONS TO VISION.

      THIS PRODUCT IS RELEASED AS TWO VERSIONS.  ONE VERSION NEAR
      THE TOP OF THE HOUR CONTAINING PRELIMINARY DATA FROM ALBUQUERQUE
      AND OTHER STATIONS.  A FINAL VERSION WITH ADDITIONAL DATA IS
      ISSUED ABOUT 10 MINUTES AFTER THE HOUR.

NMZ501-503-504-510>518-241200-
NORTHWEST PLATEAU/NORTHCENTRAL MOUNTAINS

CITY           SKY/WX    TMP DP  RH WIND       PRES   REMARKS
FARMINGTON     CLOUDY    28  10  46 W9        29.85R WCI  19
LOS ALAMOS     FAIR      24  11  57 W6        29.80S WCI  17
SANTA FE       FAIR      22   8  55 NW8       29.81R WCI  12
TAOS           FAIR      21   0  39 W10       29.79R WCI  10
ANGEL FIRE     CLOUDY    19   2  48 W10G17    29.75R WCI   8

$$
NMZ402-403-502-505>509-241200-
WESTCENTRAL MOUNTAINS/SOUTHWEST MOUNTAINS

CITY           SKY/WX    TMP DP  RH WIND       PRES   REMARKS
GALLUP         CLOUDY    27   6  41 W10       29.89R WCI  17
GRANTS         MOCLDY    24  14  65 NW13      29.89R WCI  12
SILVER CITY    FAIR      28  14  57 NW6       29.93S WCI  21

$$
NMZ407-409-411-412-241200-
SOUTHERN DESERTS

CITY           SKY/WX    TMP DP  RH WIND       PRES   REMARKS
DEMING         FAIR      33  15  47 S8        29.95R WCI  26
LAS CRUCES     FAIR      38  10  31 W12       29.92R WCI  31
HOLLOMAN AFB   FAIR      43   8  23 W12       29.92R
ALAMOGORDO     FAIR      43   9  24 S9        29.90F
T OR C         FAIR      35   7  31 W6        29.88R WCI  30

$$
NMZ519>523-241200-
CENTRAL VALLEYS/CENTRAL HIGHLANDS

CITY           SKY/WX    TMP DP  RH WIND       PRES   REMARKS
ALBUQUERQUE    MOCLDY    33  20  58 W7        29.86R WCI  27
DOUBLE EAGLE   CLOUDY    32  18  56 NW6       29.86R WCI  26
MORIARTY ARPT  FAIR      26  11  53 NW6       29.84R WCI  19
CLINES CORNERS MOCLDY    25   7  46 W10       29.81R WCI  15
BELEN          FAIR      31  17  54 SW3       29.88S
SOCORRO        FAIR      37   5  27 NW7       29.89R WCI  31

$$
NMZ524>526-539-540-241200-
SOUTHCENTRAL MOUNTAINS

CITY           SKY/WX    TMP DP  RH WIND       PRES   REMARKS
RUIDOSO        FAIR      32   0  25 W15G28    29.84S WCI  22

$$
NMZ527>531-241200-
NORTHEAST HIGHLANDS/NORTHEAST PLAINS

CITY           SKY/WX    TMP DP  RH WIND       PRES   REMARKS
LAS VEGAS      FAIR      25   6  44 CALM      29.76R
RATON          FAIR      15   9  76 N5        29.73S WCI   8
CLAYTON        FAIR      22  19  89 NW12      29.79S WCI  10

$$
NMZ532>537-241200-
EASTCENTRAL PLAINS

CITY           SKY/WX    TMP DP  RH WIND       PRES   REMARKS
TUCUMCARI      FAIR      28  24  85 E6        29.82R WCI  22
CANNON AFB     NOT AVBL
CLOVIS AIRPORT FAIR      30  25  80 NE8       29.81S WCI  23

$$
NMZ028-029-538-241200-
SOUTHEAST PLAINS

CITY           SKY/WX    TMP DP  RH WIND       PRES   REMARKS
ROSWELL        FAIR      38   9  30 NE8         N/A  WCI  32
ARTESIA        FAIR      39   5  24 W9        29.82R WCI  33
CARLSBAD       FAIR      54   5  14 W33G44    29.72F
HOBBS          FAIR      39   9  28 W5        29.83R


$$




USA.gov is the U.S. government's official web portal to all federal, state and local government web resources and services.